星链-11126 [DTC] (STARLINK-11126 [DTC] )

导读 | 豆包AI

STARLINK-11126是美国SpaceX星链星座的卫星,于2024年6月5日发射升空,归属美国所有。作为星链互联网星座的组成部分,它承担着为全球提供高速低延迟宽带互联网服务的任务,尤其覆盖偏远地区,支撑卫星组网,推动全球互联互通,进一步拓展了星链星座的服务覆盖范围与网络能力。

基本信息
目录编号:
59951
目录名称:
STARLINK-11126
国际标识:
2024-107G
轨道中心:
EARTH
卫星名称:
星链-11126 [DTC]
卫星全名:
星链-11126 [DTC] (STARLINK-11126 [DTC] )
卫星状态:
已陨落 最后检测时间 2025-04-21
发射日期:
2024-06-05 UTC
国别 :
美国 (US)
星等 :
--
轨道信息
数据来源 国际轨道数据
星历时间: 2025-04-21T05:45:02+0800
轨道信息已过期399天
半长轴: 6570.581km
偏心率: 0.0008552
轨道倾角: 53.132°
近地点辐角 235.546°
升交点赤经 20.366°
平近点角 213.601°
近地点: 186.826km
远地点: 198.066km
周期: 88.342分钟
每日圈数: 16.300359
详细信息
固有亮度:
5
最大亮度:
0.3
卫星平台:
Starlink v2.0 mini
覆盖范围:
全球
运营商:
太空探索技术公司
运营商所在国:
美国
制造商(研发单位):
太空探索技术公司
制造商所在国:
美国
使用方式:
暂无
卫星简介
星链(Starlink)计划是由太空探索技术公司(SpaceX)提出的一个巨型低轨卫星互联网星座项目,计划在2019年至2024年间在太空搭建由约1.2万颗卫星组成的“星链”网络,其中1584颗将部署在地球上空550千米处的近地轨道,并从2020年开始工作。该卫星仍在工作。